Location: Liverpool
(53.4163°N, 2.9405°W)
Time: 13:44:00
(UTC+01:00)

ISS - Pass Details

Date: 02 April 2020
Orbit: 417 x 419 km, 51.6° (Epoch: 03 June)

Event Time Altitude Azimuth Distance (km) Brightness Sun altitude
Rises 20:39:28 0° 279° (W) 2,369 2.1 -8.0°
Reaches altitude 10° 20:41:44 10° 268° (W) 1,502 0.3 -8.3°
Maximum altitude 20:44:41 28° 207° (SSW) 814 -2.2 -8.7°
Drops below altitude 10° 20:47:37 10° 146° (SE) 1,494 -1.5 -9.1°
Enters shadow 20:47:46 - 145° (SE) 1,550 -1.4 -9.1°
